Other Public Products
Issued by NWS Grand Forks, ND

Home | Current Version | Previous Version | Text Only | Print | Product List | Glossary On
Versions: 1 2 3 4 5 6 7 8 9 10 11 12 13 14 15 16 17 18 19 20 21 22 23 24 25 26 27 28 29 30 31 32 33 34 35 36 37 38 39 40 41 42 43 44 45 46 47 48 49 50
000
FPUS83 KFGF 251731
OPUFGF
PRAIRIE TO PINES WEATHER ROUNDUP
NATIONAL WEATHER SERVICE EASTERN NORTH DAKOTA/GRAND FORKS ND
1200 PM CDT MON MAY 25 2015

 **SATELLITE DATA USED TO AUGMENT SKY COVER AT AUTOMATED STATIONS**
 *****  WEATHER ACROSS EASTERN NORTH DAKOTA  *****

CITY           SKY/WX    TMP DP  RH WIND       PRES   REMARKS
GRAND FORKS    CLOUDY    66  50  56 NW6       29.76S
GRAND FORKS AF CLOUDY    66  49  53 N8        29.77S
GRAND CITY NWS   N/A     64 N/A N/A N6          N/A
BUXTON           N/A     68  60  75 W6          N/A
DEVILS LAKE    CLOUDY    73  48  40 NW6       29.79F
FARGO          LGT RAIN  63  57  81 NE9       29.78R
WAHPETON ARPT  CLOUDY    57  52  82 NE16G23   29.74S
$$

 *****  WEATHER ACROSS CENTRAL AND WESTERN NORTH DAKOTA  *****

CITY           SKY/WX    TMP DP  RH WIND       PRES   REMARKS
JAMESTOWN      PTSUNNY   65  57  75 NW6       29.80F
BISMARCK       CLOUDY    64  55  72 VRB3      29.86S
MINOT          PTSUNNY   73  46  38 VRB5      29.84F
MINOT AFB      MOSUNNY   78  47  33 E5        29.83S
GARRISON         N/A     68  50  52 E3        29.85F
WILLISTON      MOSUNNY   72  46  39 CALM      29.87F
DICKINSON      CLOUDY    58  53  84 E7        29.88S
HETTINGER      LGT RAIN  56  53  90 NE15      29.88S FOG
$$

 *****  OTHER OBSERVATIONS NORTHEAST NORTH DAKOTA  *****

CITY           SKY/WX    TMP DP  RH WIND       PRES   REMARKS
WALHALLA         N/A     75  41  29 NE8       29.79F
LANGDON        FAIR      77  43  29 NE14      29.81F
CAVALIER       FAIR      73  45  35 N6        29.78F
GRAFTON        FAIR      70  48  46 N13       29.77S
CANDO          FAIR      77  39  25 NE8       29.81F
FORT TOTTEN    NOT AVBL
ROLLA            N/A     75  37  25 NE13      29.84S
RUGBY          NOT AVBL
 ***** THE ABOVE OBSERVATIONS ARE NON NWS ARE NOT QUALITY
        CONTROLLED AND MAY MIS-REPORT RAIN FOR SNOW...
$$

 *****  OTHER OBSERVATIONS SOUTHEAST NORTH DAKOTA *****

CITY           SKY/WX    TMP DP  RH WIND       PRES   REMARKS
COOPERSTOWN    NOT AVBL
VALLEY CITY    FAIR      63  59  88 CALM      29.80F
OAKES            N/A     63  57  82 NE20G26   29.78F
GWINNER        NOT AVBL
SHEYENNE NWR     N/A     62  55  79 NE10      29.95S
BUFFALO        NOT AVBL
WYNDMERE         N/A     61  55  82 NE17        N/A
 ***** THE ABOVE OBSERVATIONS ARE NON NWS ARE NOT QUALITY
       CONTROLLED AND MAY MIS-REPORT RAIN FOR SNOW...
$$

  *****  WEATHER ACROSS NORTHERN MINNESOTA  *****

CITY           SKY/WX    TMP DP  RH WIND       PRES   REMARKS
FLAG ISLAND    CLOUDY    64  48  55 CALM      29.76S
WARROAD        CLOUDY    64  52  63 E7        29.77S
ROSEAU         CLOUDY    72  52  49 E9        29.75F
HALLOCK        CLOUDY    70  48  46 N8        29.76F
THF RVR FALLS  CLOUDY    64  52  63 CALM      29.77F
HALSTAD          N/A     63  57  81 CALM        N/A
FOSSTON        LGT RAIN  61  55  82 CALM      29.80S
BAUDETTE       CLOUDY    62  52  69 CALM      29.77S
WASKISH        LGT RAIN  63  55  77 CALM      29.78S
CROOKSTON      CLOUDY    66  54  63 W5        29.77S
$$
  *****  WEATHER ACROSS CENTRAL AND WEST MINNESOTA  *****

CITY           SKY/WX    TMP DP  RH WIND       PRES   REMARKS
BEMIDJI        LGT RAIN  57  55  91 N6        29.76F
PARK RAPIDS    RAIN      58  55  90 N15G22    29.71S FOG
WADENA         RAIN      57  55  94 N12G18    29.68S
DETROIT LAKES  RAIN      55  54  94 N8        29.77R
MOORHEAD       DRIZZLE   61  55  82 NE15      29.78S
FERGUS FALLS   LGT RAIN  57  55  94 NE18G28   29.72S
ELBOW LAKE     LGT RAIN  57  55  95 N16G22    29.69S
MORRIS MN      CLOUDY    61  59  94 N9        29.68S
STAPLES        RAIN      57  57 100 N6        29.67F
WHEATON        CLOUDY    55  54  94 N17G24    29.73S
$$
  *****  WEATHER ELSEWHERE ACROSS MINNESOTA  *****

CITY           SKY/WX    TMP DP  RH WIND       PRES   REMARKS
DULUTH         LGT RAIN  55  53  93 E18G28    29.69S FOG
INTRNTL FALLS  CLOUDY    65  52  62 SW3       29.78S
ELY            LGT RAIN  57  55  94 NE5       29.75S
CLOQUET        CLOUDY    54  52  94 E10G20    29.69S
BRAINERD       LGT RAIN  57  56  96 E5        29.67F FOG
HIBBING        LGT RAIN  59  55  87 NE7       29.70F
ALEXANDRIA     CLOUDY    59  57  93 NE5       29.68S
SAINT CLOUD    CLOUDY    61  58  90 SW9       29.66S
MINNEAPOLIS    CLOUDY    63  57  81 SW17G25   29.70R
$$

  *****  WEATHER ACROSS SOUTH DAKOTA  *****

CITY           SKY/WX    TMP DP  RH WIND       PRES   REMARKS
SIOUX FALLS    CLOUDY    65  58  78 SW6       29.76S
BROOKINGS      CLOUDY    63  57  82 W8        29.76R
WATERTOWN      CLOUDY    59  55  87 N14       29.75R
HURON          CLOUDY    62  56  80 CALM      29.76R
SISSETON         N/A     58  56  93 NE23G31   29.73R
ABERDEEN       CLOUDY    62  56  80 NE15      29.79R
MITCHELL       CLOUDY    63  57  81 CALM      29.76F
PIERRE         CLOUDY    60  55  83 NE7       29.77F
MOBRIDGE       LGT RAIN  61  58  90 E15       29.81S
RAPID CITY     CLOUDY    59  52  77 N14       29.82S
$$

  *****  SOME WEATHER IN NEARBY STATES *****

CITY           SKY/WX    TMP DP  RH WIND       PRES   REMARKS
GLASGOW MT     SUNNY     71  44  37 VRB3      29.86F
GREAT FALLS MT SUNNY     64  46  52 E6        29.91S
CHEYENNE WY    CLOUDY    51  41  68 NW14      29.93R
SCOTTSBLUFF NE LGT RAIN  53  51  93 W12       29.86R
OMAHA NE       MOSUNNY   73  58  59 SW12      29.79F
DES MOINES IA  MOSUNNY   75  60  59 SW14      29.82S
DAVENPORT IA   MOSUNNY   72  63  73 SW15G25   29.89S
CHICAGO IL     PTSUNNY   71  66  84 SW13G21   29.88S
EAU CLAIRE WI  CLOUDY    66  60  81 SW12      29.69S
LA CROSSE WI   PTSUNNY   75  61  61 SW17G31   29.74R
$$

  *****  SOME NATIONAL WEATHER *****

CITY           SKY/WX    TMP DP  RH WIND       PRES   REMARKS
LA GUARDIA NY  MOSUNNY   81  57  43 S13       30.22F
RALEIGH NC     MOSUNNY   80  55  42 S9G17     30.32F
ATLANTA GA     PTSUNNY   78  65  63 S9        30.27F
NEW ORLEANS LA PTSUNNY   86  73  65 SE17      30.05F THUNDER HX  93
OKLAHOMA CITY  PTSUNNY   77  66  68 S20       29.89S
ALBUQUERQUE NM MOSUNNY   61  43  51 VRB3      30.00F
SALT LAKE CITY MOSUNNY   61  48  62 S7        29.97S
LOS ANGELES CA CLOUDY    61  54  77 CALM      30.00S
BOISE ID       SUNNY     69  47  45 W5        29.89F
SEATTLE WA     CLOUDY    54  47  77 SW7       30.03R
$$

*** WEATHER ACROSS MANITOBA...SASKATCHEWAN AND ONTARIO ***
                ***ONTARIO***

CITY           SKY/WX    TMP DP  RH WIND       PRES   REMARKS
GERALDTON      CLOUDY    63  50  63 S6        29.85F
THUNDER BAY    LGT RAIN  50  48  93 E6        29.81F
SIOUX LOOKOUT  CLOUDY    70  46  43 VRB2      29.78F
TORONTO        PTSUNNY   72  55  56 SE8       30.00F
BIG TROUT LK   SUNNY     59  37  44 S3        29.86F
PICKLE LAKE    PTSUNNY   73  32  21 VRB2      29.82F
DRYDEN         PTSUNNY   72  43  35 E6        29.78F
KENORA         CLOUDY    77  46  33 N6        29.78F
$$
                *** MANITOBA***

CITY           SKY/WX    TMP DP  RH WIND       PRES   REMARKS
BRANDON        CLOUDY    81  43  26 NW10      29.81F
DAUPHIN        SUNNY     75  48  38 N7        29.80S
ISLAND LAKE    MOSUNNY   66  37  34 W5        29.82F
PILOT MOUND      N/A     75  37  25 NE10        N/A
THE PAS        MOSUNNY   79  28  15 S6        29.78F
THOMPSON       SUNNY     66  41  39 SE3       29.79F
WINNIPEG       CLOUDY    77  45  31 E5        29.79F
LYNN LAKE      SUNNY     73  37  27 E3        29.74F
CHURCHILL      PTSUNNY   45  28  53 NW5       29.86F
GILLAM         SUNNY     55  30  38 N6        29.83F
$$
                ***SASKATCHEWAN***

CITY           SKY/WX    TMP DP  RH WIND       PRES   REMARKS
ESTEVAN        PTSUNNY   75  39  27 VRB3      29.86S
KINDERSLEY     PTSUNNY   75  30  19 VRB6      29.86
LLOYDMINSTER   PTSUNNY   75  30  19 VRB2      29.86F
PRINCE ALBERT  CLOUDY    77  45  31 SW6       29.81F
REGINA         MOSUNNY   77  37  24 VRB3      29.84F


USA.gov is the U.S. government's official web portal to all federal, state and local government web resources and services.